Flag for Laos Weather past 2 weeks in Vientiane, Laos

Now
86 °F

Passing clouds.


Feels Like: 93 °F
Forecast: 78 / 92 °F
Wind: 7 mph from Southwest

Location: Vientiane Airport

Current Time: Jul 6, 2015 at 9:12:07 PM

Latest Report: Jul 6, 2015 at 8:30 PM


Visibility: 2 mi

Pressure: 29.56 "Hg

Humidity: 66%

Dew point: 73 °F

Location of VientianeLocation

Historic Weather in Vientiane — Graph

°F

Vientiane temperature yesterday

Maximum temperature yesterday: 99 °F (at 2:00 PM)
Minimum temperature yesterday: 81 °F (at 6:30 PM)
Average temperature yesterday: 87 °F

Past Weeks' High & Low Weather Summary

 TemperatureHumidityPressure
High100 °F (Jul 4, 4:00 PM)94% (Jun 28, 6:00 AM)29.89 "Hg (Jun 28, 6:00 AM)
Low77 °F (Jun 28, 6:00 AM)39% (Jul 1, 3:00 PM)28.94 "Hg (Jul 6, 5:30 PM)
Average89 °F63%29.65 "Hg
* Reported Jun 21 7:00 PM — Jul 6 7:30 PM, Vientiane, Weather by CustomWeather, © 2015

Note: Actual official high and low records may vary slightly from our data, if they occured in-between our weather recording intervals... More about our weather records

Advertising

Vientiane weather history for previous 24 hours

 ConditionsComfort  
Time TempWeatherWind HumidityBarometerVisibility
7:30 PM
Mon, Jul 6
93 °FFog.2 mph53%29.53 "Hg3 mi
7:00 PM93 °FFog.2 mph53%29.53 "Hg3 mi
6:30 PM95 °FScattered clouds.2 mph50%29.50 "HgN/A
6:00 PM95 °FScattered clouds.2 mph50%29.50 "HgN/A
5:30 PM93 °FScattered clouds.5 mph53%28.94 "HgN/A
5:00 PM93 °FScattered clouds.5 mph53%29.47 "HgN/A
4:30 PM99 °FScattered clouds.2 mph42%29.50 "HgN/A
4:00 PM99 °FRain. Scattered clouds.2 mph42%29.50 "HgN/A
3:30 PM99 °FScattered clouds.5 mph42%29.53 "HgN/A
3:00 PM99 °FScattered clouds.5 mph42%29.53 "HgN/A
2:30 PM97 °FScattered clouds.2 mph47%29.56 "HgN/A
2:00 PM97 °FScattered clouds.2 mph47%29.56 "HgN/A
1:00 PM95 °FScattered clouds.2 mph53%29.59 "HgN/A
12:30 PM91 °FScattered clouds.2 mph59%29.62 "HgN/A
12:00 PM91 °FScattered clouds.2 mph59%29.62 "HgN/A
11:30 AM90 °FBroken clouds.2 mph63%29.65 "HgN/A
11:00 AM90 °FBroken clouds.2 mph63%29.65 "HgN/A
10:30 AM88 °FBroken clouds.2 mph62%29.68 "HgN/A
10:00 AM88 °FBroken clouds.2 mph62%29.68 "HgN/A
9:30 AM86 °FBroken clouds.2 mph70%29.65 "HgN/A
9:00 AM86 °FBroken clouds.2 mph70%29.65 "HgN/A
8:30 AM84 °FPartly sunny.2 mph74%29.65 "HgN/A
8:00 AM82 °FPartly sunny.2 mph79%29.65 "HgN/A
7:30 AM81 °FBroken clouds.2 mph84%29.62 "HgN/A
7:00 AM81 °FPartly sunny.2 mph84%29.62 "HgN/A
6:30 AM81 °FPartly sunny.2 mph84%29.59 "HgN/A
6:00 AM81 °FPartly sunny.2 mph84%29.59 "HgN/A
11:30 PM
Sun, Jul 5
81 °FFog.2 mph89%29.62 "Hg2 mi
11:00 PM81 °FFog.2 mph89%29.62 "Hg2 mi
10:30 PM81 °FFog.2 mph84%29.59 "Hg2 mi
10:00 PM81 °FFog.2 mph84%29.59 "Hg2 mi
9:30 PM81 °FFog.2 mph84%29.59 "Hg2 mi
9:00 PM81 °FFog.2 mph84%29.59 "Hg2 mi
Weather by CustomWeather, © 2015

See weather overviewHow to use our weather pages